• In Deutschland
  • Länderverzeichnis
  • Für 7 Tage
  • Wassertemperatur
  • Satellitenkarten
  • Wetterkarte
  • Widgets
  • user-avatar
    Anmelden

    Stündliche Wetter Ondjiwa

    Heute, 24 September, Sonntag

    Zeit Temperatur Niederschläge Wind Luftdruck Luftfeuchtigkeit
    00:00 +25°C° 0 mm 3 m/S 668 mmHg 16%
    01:00 +25°C° 0 mm 3 m/S 668 mmHg 17%
    02:00 +24°C° 0 mm 3 m/S 668 mmHg 18%
    03:00 +24°C° 0 mm 3 m/S 667 mmHg 19%
    04:00 +22°C° 0 mm 3 m/S 667 mmHg 20%
    05:00 +24°C° 0 mm 3 m/S 668 mmHg 20%
    06:00 +24°C° 0 mm 3 m/S 668 mmHg 19%
    07:00 +25°C° 0 mm 2 m/S 669 mmHg 19%
    08:00 +29°C° 0 mm 3 m/S 669 mmHg 15%
    09:00 +34°C° 0 mm 4 m/S 670 mmHg 11%
    10:00 +38°C° 0 mm 4 m/S 671 mmHg 8%
    11:00 +40°C° 0 mm 4 m/S 670 mmHg 7%
    12:00 +41°C° 0 mm 4 m/S 670 mmHg 6%
    13:00 +42°C° 0 mm 3 m/S 669 mmHg 5%
    14:00 +42°C° 0 mm 3 m/S 668 mmHg 5%
    15:00 +42°C° 0 mm 3 m/S 668 mmHg 4%
    16:00 +41°C° 0 mm 2 m/S 667 mmHg 4%
    17:00 +38°C° 0 mm 2 m/S 666 mmHg 5%
    18:00 +34°C° 0 mm 2 m/S 666 mmHg 7%
    19:00 +30°C° 0 mm 2 m/S 665 mmHg 8%
    20:00 +29°C° 0 mm 2 m/S 666 mmHg 9%
    21:00 +28°C° 0 mm 2 m/S 666 mmHg 9%
    22:00 +27°C° 0 mm 2 m/S 667 mmHg 10%
    23:00 +26°C° 0 mm 2 m/S 666 mmHg 12%

    Morgen, 25 September, Montag

    Zeit Temperatur Niederschläge Wind Luftdruck Luftfeuchtigkeit
    00:00 +25°C° 0 mm 2 m/S 666 mmHg 13%
    01:00 +24°C° 0 mm 2 m/S 666 mmHg 15%
    02:00 +23°C° 0 mm 2 m/S 666 mmHg 20%
    03:00 +21°C° 0 mm 3 m/S 666 mmHg 25%
    04:00 +20°C° 0 mm 3 m/S 665 mmHg 30%
    05:00 +21°C° 0 mm 3 m/S 666 mmHg 30%
    06:00 +22°C° 0 mm 3 m/S 667 mmHg 30%
    07:00 +24°C° 0 mm 3 m/S 667 mmHg 30%
    08:00 +28°C° 0 mm 3 m/S 668 mmHg 24%
    09:00 +31°C° 0 mm 2 m/S 669 mmHg 18%
    10:00 +36°C° 0 mm 2 m/S 669 mmHg 12%
    11:00 +38°C° 0 mm 2 m/S 669 mmHg 11%
    12:00 +39°C° 0 mm 2 m/S 668 mmHg 9%
    13:00 +41°C° 0 mm 1 m/S 667 mmHg 7%
    14:00 +40°C° 0 mm 1 m/S 667 mmHg 7%
    15:00 +40°C° 0 mm 1 m/S 666 mmHg 7%
    16:00 +40°C° 0 mm 1 m/S 665 mmHg 7%
    17:00 +36°C° 0 mm 1 m/S 665 mmHg 8%
    18:00 +33°C° 0 mm 1 m/S 665 mmHg 10%
    19:00 +30°C° 0 mm 2 m/S 664 mmHg 12%
    20:00 +29°C° 0 mm 2 m/S 665 mmHg 13%
    21:00 +29°C° 0 mm 3 m/S 665 mmHg 14%
    22:00 +28°C° 0 mm 3 m/S 666 mmHg 14%
    23:00 +27°C° 0 mm 3 m/S 666 mmHg 18%

    übermorgen, 26 September, Dienstag

    Zeit Temperatur Niederschläge Wind Luftdruck Luftfeuchtigkeit
    00:00 +26°C° 0 mm 4 m/S 665 mmHg 21%
    01:00 +25°C° 0 mm 4 m/S 665 mmHg 24%
    02:00 +23°C° 0 mm 4 m/S 664 mmHg 27%
    03:00 +22°C° 0 mm 3 m/S 664 mmHg 30%
    04:00 +21°C° 0 mm 3 m/S 664 mmHg 33%
    05:00 +21°C° 0 mm 2 m/S 665 mmHg 32%
    06:00 +23°C° 0 mm 2 m/S 665 mmHg 30%
    07:00 +23°C° 0 mm 1 m/S 666 mmHg 29%
    08:00 +27°C° 0 mm 2 m/S 667 mmHg 24%
    09:00 +30°C° 0 mm 3 m/S 667 mmHg 18%
    10:00 +34°C° 0 mm 4 m/S 668 mmHg 13%
    11:00 +36°C° 0 mm 3 m/S 667 mmHg 12%
    12:00 +37°C° 0 mm 3 m/S 667 mmHg 10%
    13:00 +38°C° 0 mm 3 m/S 666 mmHg 9%
    14:00 +38°C° 0 mm 3 m/S 666 mmHg 9%
    15:00 +38°C° 0 mm 3 m/S 665 mmHg 8%
    16:00 +39°C° 0 mm 3 m/S 664 mmHg 8%
    17:00 +36°C° 0 mm 3 m/S 664 mmHg 10%
    18:00 +32°C° 0 mm 2 m/S 664 mmHg 12%
    19:00 +29°C° 0 mm 2 m/S 664 mmHg 13%
    20:00 +28°C° 0 mm 3 m/S 665 mmHg 13%
    21:00 +28°C° 0 mm 3 m/S 665 mmHg 13%
    22:00 +27°C° 0 mm 4 m/S 665 mmHg 13%
    23:00 +26°C° 0 mm 4 m/S 665 mmHg 13%

    27 September, Mittwoch

    Zeit Temperatur Niederschläge Wind Luftdruck Luftfeuchtigkeit
    00:00 +25°C° 0 mm 4 m/S 665 mmHg 12%
    01:00 +23°C° 0 mm 4 m/S 664 mmHg 12%
    02:00 +22°C° 0 mm 3 m/S 664 mmHg 14%
    03:00 +20°C° 0 mm 3 m/S 664 mmHg 16%
    04:00 +19°C° 0 mm 2 m/S 664 mmHg 18%
    05:00 +20°C° 0 mm 2 m/S 665 mmHg 18%
    06:00 +21°C° 0 mm 2 m/S 666 mmHg 17%
    07:00 +23°C° 0 mm 1 m/S 667 mmHg 16%
    08:00 +27°C° 0 mm 2 m/S 667 mmHg 13%
    09:00 +30°C° 0 mm 2 m/S 668 mmHg 11%
    10:00 +35°C° 0 mm 3 m/S 668 mmHg 8%
    11:00 +36°C° 0 mm 3 m/S 668 mmHg 7%
    12:00 +38°C° 0 mm 3 m/S 667 mmHg 7%
    13:00 +40°C° 0 mm 3 m/S 666 mmHg 6%
    14:00 +40°C° 0 mm 2 m/S 666 mmHg 6%
    15:00 +40°C° 0 mm 2 m/S 665 mmHg 6%
    16:00 +40°C° 0 mm 2 m/S 665 mmHg 6%
    17:00 +37°C° 0 mm 3 m/S 665 mmHg 8%
    18:00 +34°C° 0 mm 3 m/S 665 mmHg 9%
    19:00 +30°C° 0 mm 3 m/S 665 mmHg 10%
    20:00 +29°C° 0 mm 3 m/S 665 mmHg 11%
    21:00 +28°C° 0 mm 3 m/S 665 mmHg 12%
    22:00 +27°C° 0 mm 3 m/S 665 mmHg 12%
    23:00 +26°C° 0 mm 3 m/S 665 mmHg 14%

    28 September, Donnerstag

    Zeit Temperatur Niederschläge Wind Luftdruck Luftfeuchtigkeit
    00:00 +25°C° 0 mm 3 m/S 665 mmHg 16%
    01:00 +22°C° 0 mm 3 m/S 665 mmHg 18%
    02:00 +22°C° 0 mm 3 m/S 665 mmHg 19%
    03:00 +23°C° 0 mm 2 m/S 665 mmHg 21%
    04:00 +21°C° 0 mm 2 m/S 665 mmHg 22%
    05:00 +23°C° 0 mm 2 m/S 666 mmHg 22%
    06:00 +22°C° 0 mm 3 m/S 667 mmHg 22%
    07:00 +23°C° 0 mm 4 m/S 667 mmHg 22%
    08:00 +27°C° 0 mm 4 m/S 668 mmHg 17%
    09:00 +30°C° 0 mm 4 m/S 668 mmHg 13%
    10:00 +35°C° 0 mm 5 m/S 669 mmHg 9%
    11:00 +36°C° 0 mm 4 m/S 668 mmHg 8%
    12:00 +38°C° 0 mm 4 m/S 668 mmHg 8%
    13:00 +41°C° 0 mm 4 m/S 667 mmHg 7%
    14:00 +40°C° 0 mm 3 m/S 667 mmHg 7%
    15:00 +40°C° 0 mm 2 m/S 666 mmHg 7%
    16:00 +40°C° 0 mm 2 m/S 666 mmHg 7%
    17:00 +37°C° 0 mm 2 m/S 666 mmHg 8%
    18:00 +34°C° 0 mm 3 m/S 665 mmHg 10%
    19:00 +31°C° 0 mm 3 m/S 665 mmHg 11%
    20:00 +30°C° 0 mm 3 m/S 666 mmHg 12%
    21:00 +29°C° 0 mm 3 m/S 666 mmHg 12%
    22:00 +28°C° 0 mm 4 m/S 666 mmHg 12%
    23:00 +27°C° 0 mm 3 m/S 666 mmHg 15%

    29 September, Freitag

    Zeit Temperatur Niederschläge Wind Luftdruck Luftfeuchtigkeit
    00:00 +25°C° 0 mm 3 m/S 666 mmHg 17%
    01:00 +24°C° 0 mm 3 m/S 666 mmHg 19%
    02:00 +22°C° 0 mm 3 m/S 666 mmHg 23%
    03:00 +21°C° 0 mm 3 m/S 666 mmHg 28%
    04:00 +21°C° 0 mm 3 m/S 666 mmHg 32%
    05:00 +23°C° 0 mm 2 m/S 666 mmHg 34%
    06:00 +23°C° 0 mm 2 m/S 667 mmHg 36%
    07:00 +24°C° 0 mm 2 m/S 667 mmHg 38%
    08:00 +27°C° 0,1 mm 3 m/S 668 mmHg 33%
    09:00 +30°C° 0,1 mm 4 m/S 669 mmHg 28%
    10:00 +35°C° 0,1 mm 5 m/S 669 mmHg 24%
    11:00 +36°C° 0 mm 4 m/S 668 mmHg 21%
    12:00 +37°C° 0 mm 4 m/S 668 mmHg 19%
    13:00 +39°C° 0 mm 3 m/S 667 mmHg 17%
    14:00 +38°C° 0 mm 3 m/S 667 mmHg 18%
    15:00 +38°C° 0 mm 3 m/S 666 mmHg 18%
    16:00 +37°C° 0 mm 3 m/S 666 mmHg 19%
    17:00 +35°C° 0,1 mm 4 m/S 666 mmHg 22%
    18:00 +33°C° 0,1 mm 4 m/S 666 mmHg 25%
    19:00 +32°C° 0,1 mm 4 m/S 666 mmHg 29%
    20:00 +29°C° 0,1 mm 4 m/S 666 mmHg 33%
    21:00 +28°C° 0,1 mm 4 m/S 666 mmHg 37%
    22:00 +27°C° 0,1 mm 3 m/S 666 mmHg 41%
    23:00 +26°C° 0,2 mm 3 m/S 666 mmHg 44%
    Mehr zeigen